Terminal Aerodrome Forecast
Issued by NWS Milwaukee/Sullivan, WI

Home | Current Version | Previous Version | Text Only | Print | Product List | Glossary On
Versions: 1 2 3 4 5 6 7 8 9 10 11 12 13 14 15 16 17 18 19 20 21 22 23 24 25 26 27 28 29 30 31 32 33 34 35 36 37 38 39 40 41 42 43 44 45 46 47 48 49 50
000
FTUS43 KMKX 011141
TAFMKE
TAF
KMKE 011141Z 0112/0218 15006KT P6SM OVC020
     FM011500 15008KT P6SM SCT020 BKN035
     FM011700 15012KT P6SM SCT030 BKN250
     FM020100 16008KT P6SM SCT050 BKN080
     FM020700 16008KT 5SM -SHRA VCTS BKN045CB OVC070
     FM021100 17009KT 4SM BR VCSH OVC015=

USA.gov is the U.S. government's official web portal to all federal, state and local government web resources and services.